Weather in Sopokha

Russia / Republic of Karelia     62°20′02″N   34°00′39″E
temp.,
°C
wind,
m/s
gust,
m/s
humid.,
%
clouds,
%
prec.,
mm/h
press.,
hPa
HPBL,
m
6 august, fri
fri600:00+10ne117858 0.0 101810
03:00+10ne118144 0.0 101812
06:00+13ne2870100 0.0 1018265
09:00+16e375886 0.0 1018620
12:00+20e463318 0.0 10182403
15:00+21ene46318 0.0 10172576
18:00+20ene363726 0.0 10172423
21:00+13ene117142 0.0 101810
7 august, sat
sat700:00+11ne11835 0.0 101813
03:00+10ne29945 0.0 1018220
06:00+13ene4117860 0.0 1018630
09:00+17e5106428 0.0 1017887
12:00+21e595088 0.0 10161486
15:00+20ese51063100 0.0 10161281
18:00+18e41165100 0.0 10151199
21:00+18ese51163100 0.0 10151224
8 august, sun
sun800:00+14e51495100 1.3 1015783
03:00+14e61496100 2.2 1014866
06:00+14e51196100 0.1 1013829
09:00+14e4996100 0.3 1013754
12:00+14e4997100 0.6 1013708
15:00+15e3898100 1.5 1014605
18:00+14ene3697100 0.1 1015441
21:00+13ne1498100 0.1 1015250
9 august, mon
mon900:00+13ne249978 0.0 1016191
03:00+13nne1299100 0.1 1016118
06:00+14ene1297100 0.0 1016119
09:00+16ene118887 0.0 1016340
12:00+20sse2368100 0.1 1016893
15:00+21se336368 0.1 1016997
18:00+20ese3571100 0.0 1016444
21:00+17ese2782100 0.0 1016213
10 august, tue
tue1000:00+16e279293 0.3 1016174
03:00+15sse119895 0.3 101530
06:00+16s269793 0.0 1015202
09:00+18sw3788100 0.1 1017548
12:00+19wsw347599 0.0 1018716
15:00+24wsw245073 0.0 10171737
18:00+21se356355 0.0 1017338
21:00+17s118198 0.1 101818